World > North America > United States > South Carolina > Clemson

Clemson, SC Hourly Weather Conditions

Feedback E-mail the Weather

Quick WX

Clemson, SC Weather Maps

°F °C°F °C
Clemson Weather Map
UTC Time: 1/28/2023, 20:54
Your Time:

Clemson, SC Regional Weather

Expires:202301282100;;399518
ASUS42 KCAE 282010
RWRCAE
REGIONAL WEATHER ROUNDUP
NATIONAL WEATHER SERVICE COLUMBIA SC
300 PM EST SAT JAN 28 2023

NOTE: "FAIR" INDICATES FEW OR NO CLOUDS BELOW 12,000 FEET WITH NO
SIGNIFICANT WEATHER AND/OR OBSTRUCTIONS TO VISIBILITY.

NOT ALL STATIONS ARE QUALITY CONTROLLED BY THE NATIONAL 
WEATHER SERVICE. USE DATA WITH CAUTION...ESPECIALLY 
DEWPOINT OBSERVATIONS.


SCZ001>059-115-116-135>137-GAZ040-063>065-077-282100-
...UPSTATE SOUTH CAROLINA...
  
CITY           SKY/WX    TMP DP  RH WIND       PRES   REMARKS
ANDERSON       PTSUNNY   55  28  35 W6        30.33F                  
LIBERTY        PTSUNNY   56  26  31 S6        30.31F                  
SPARTANBURG    PTSUNNY   57  21  24 CALM      30.32S                  
CLEMSON        PTSUNNY   54  25  32 VRB5      30.32F                  
GREENVILLE     PTSUNNY   57  24  28 S8        30.32F                  
GREENWOOD      PTSUNNY   55  26  32 S7        30.36S                  
GREER          PTSUNNY   58  22  24 S7        30.31F                  
ROCK HILL      MOSUNNY   59  25  27 SW10      30.33S                  
CHESTER        PTSUNNY   57  25  28 SE6       30.34S                  
LAURENS        PTSUNNY   55  23  28 S8        30.34S                  


...CENTRAL SOUTH CAROLINA...
  
CITY           SKY/WX    TMP DP  RH WIND       PRES   REMARKS
COLUMBIA APT   PTSUNNY   57  28  33 S7        30.35S                  
COLUMBIA OWENS PTSUNNY   57  26  30 S8        30.36F                  
MCENTIRE ANGB  PTSUNNY   57  27  31 S6        30.34S                  
ORANGEBURG     PTSUNNY   58  28  32 SW6       30.36F                  
SUMTER SHAW    PTSUNNY   57  27  31 S9        30.35S                  
NEWBERRY       PTSUNNY   55  25  30 SW6       30.37F                  
AIKEN          FAIR      57  27  31 SW10      30.36S                  
BARNWELL       FAIR      61  27  27 S5        30.36S                  
MANNING        FAIR      54  28  37 SW5       30.38F                  
CAMDEN         FAIR      57  25  28 CALM      30.36S                  
LANCASTER      PTSUNNY   57  25  28 S9G15     30.34R                  
WINNSBORO      PTSUNNY   55  28  35 S8        30.34S                  


...EASTERN AND COASTAL SOUTH CAROLINA...
  
CITY           SKY/WX    TMP DP  RH WIND       PRES   REMARKS
MYRTLE BEACH   PTSUNNY   54  36  50 S9        30.40S                  
N MYRTLE BCH   PTSUNNY   52  35  52 S7        30.39R                  
CONWAY         FAIR      55  28  35 S5        30.38S                  
MARION         FAIR      55   9  15 S7        30.37S                  
HARTSVILLE     FAIR      57  23  26 S6        30.35S                  
FLORENCE       PTSUNNY   57  27  31 S9        30.36F                  
DARLINGTON     PTSUNNY   57  29  34 S7        30.36F                  
CHARLESTON APT MOSUNNY   59  28  30 SE10      30.39F                  
MOUNT PLEASANT FAIR      55  27  33 SE9       30.39S                  
WALTERBORO     SUNNY     57  28  33 CALM      30.39S                  
BEAUFORT       MOSUNNY   59  31  34 S5        30.39F                  
HILTON HEAD    SUNNY     55  28  35 SE7       30.41S                  


...EASTERN GEORGIA...
  
CITY           SKY/WX    TMP DP  RH WIND       PRES   REMARKS
AUGUSTA BUSH F MOSUNNY   59  24  26 CALM      30.35F                  
AUGUSTA DANIEL MOSUNNY   58  25  28 SW7       30.36S                  
THOMSON        MOSUNNY   60  26  27 W5        30.35F                  
WASHINGTON     FAIR      56  26  31 S8        30.34F                  
CLAXTON        FAIR      61  24  24 SE5       30.38S                  
SYLVANIA       MOSUNNY   59  26  28 MISG      30.38F                  
STATESBORO     MOSUNNY   58  27  30 S3        30.38S                  
SAVANNAH       PTSUNNY   60  25  26 SE9       30.38F                  


...SOUTHERN NORTH CAROLINA...
  
CITY           SKY/WX    TMP DP  RH WIND       PRES   REMARKS
CHARLOTTE      PTSUNNY   59  23  25 S12       30.32F                  
MONROE         MOSUNNY   58  22  24 VRB5      30.32S                  
WADESBORO      MOSUNNY   60  18  19 SE10      30.33F                  
ROCKINGHAM     MOSUNNY   58  22  24 SE7       30.34F                  
RUTHERFORDTON  MOSUNNY   55  25  30 S7        30.31F                  
ASHEVILLE      MOSUNNY   53  19  26 S12       30.28F                  

$$
  

SKY/WX - Weather  TMP - Temperature  DP - Dew Point  RH - Humidity
WIND - Wind Direction/Speed PRES - Barometric Pressure VSB - Visibility
WCI - Wind Chill Index E13G22 Wind - East Wind 13 mph/Gusts of 22 mph

Trending Headlines

Trending Entertainment Headlines

Clemson Radar Loop

Use the map search tool if you want to place a location marker on the radar map...

Clemson Quick Facts

National Two Day Weather Forecast


E-mail the Clemson Weather Forecast

Voice your opinion or tell us about page issues...